Fairbanks Eiels, AK

12:39 PM AKDT on June 22, 2018 (GMT -0800)
Eielson Air Force Base

Weather History for PAEI - March, 2018

Change the Weather History Date:

Wednesday, March 14, 2018

  Actual Average Record
Temperature  
Mean Temperature 28 °F -  
Max Temperature 30 °F 21 °F 44 °F (1998)
Min Temperature 23 °F -5 °F -40 °F (1964)
Degree Days  
Heating Degree Days 37    
Moisture  
Dew Point 22 °F    
Average Humidity 83    
Maximum Humidity 94    
Minimum Humidity 71    
Precipitation  
Precipitation 0.00 in - - ()
Snow  
Snow 0.00 in - - ()
Snow Depth 23.00 in    
Sea Level Pressure  
Sea Level Pressure 29.71 in    
Wind  
Wind Speed 4 mph (SSW)    
Max Wind Speed 7 mph    
Max Gust Speed -    
Visibility 5 miles    
Events Fog , Snow    
Averages and records for this station are not official NWS values.
T = Trace of Precipitation, MM = Missing Value Source: NWS Daily Summary

Daily Weather History Graph

Daily Weather History Graph

Search for Another Location

Airport or City:

Astronomy

Mar. 14, 2018 Rise Set
Actual Time 8:09 AM AKDT 7:46 PM AKDT
Civil Twilight 7:21 AM AKDT 8:35 PM AKDT
Nautical Twilight 6:23 AM AKDT 9:33 PM AKDT
Astronomical Twilight 5:20 AM AKDT 10:37 PM AKDT
Moon 8:12 AM AKDT (3/14) 3:58 PM AKDT (3/14)
Length of Visible Light 13h 13m
Length of Day
11h 36m
Waning Crescent, 7% of the Moon is Illuminated
Mar 14
Waning Crescent
Mar 17
New
Mar 24
First Quarter
Mar 31
Full
Apr 7
Last Quarter

Hourly Weather History & Observations

Time (AKDT) Temp. Windchill Dew Point Humidity Pressure Visibility Wind Dir Wind Speed Gust Speed Precip Events Conditions
12:26 AM 32.0 °F 27.5 °F 26.6 °F 80% 29.55 in 10.0 mi WNW 4.6 mph - N/A   Overcast
12:41 AM 32.0 °F 25.6 °F 24.8 °F 75% 29.56 in 10.0 mi SW 6.9 mph - N/A   Mostly Cloudy
12:56 AM 30.6 °F 23.8 °F 23.9 °F 76% 29.56 in 10.0 mi WSW 6.9 mph - N/A   Scattered Clouds
1:56 AM 27.9 °F 20.6 °F 19.6 °F 71% 29.59 in 10.0 mi SW 6.9 mph - N/A   Overcast
2:56 AM 24.8 °F 20.5 °F 17.4 °F 74% 29.60 in 10.0 mi South 3.5 mph - N/A   Mostly Cloudy
3:41 AM 24.8 °F 17.9 °F 17.6 °F 74% 29.61 in 10.0 mi SSE 5.8 mph - N/A   Overcast
3:56 AM 25.5 °F - 18.1 °F 74% 29.61 in 10.0 mi Calm Calm - N/A   Overcast
4:56 AM 25.9 °F 18.2 °F 20.5 °F 80% 29.62 in 10.0 mi SSW 6.9 mph - N/A   Overcast
5:41 AM - - - N/A% - 6.0 mi Calm Calm - N/A   Overcast
5:56 AM - - - N/A% - 8.0 mi WSW 4.6 mph - N/A   Overcast
6:11 AM - - - N/A% - 2.2 mi Calm Calm - N/A   Overcast
6:26 AM - - - N/A% - 1.2 mi Calm Calm - N/A   Overcast
6:56 AM - - - N/A% 29.60 in 4.0 mi SSE 5.8 mph - N/A   Unknown
7:17 AM - - - N/A% 29.60 in 1.0 mi SSE 5.8 mph - N/A   Overcast
7:38 AM - - - N/A% 29.60 in 1.5 mi South 4.6 mph - N/A   Overcast
7:57 AM 26.6 °F 21.2 °F 23.0 °F 86% 29.63 in 1.5 mi South 4.6 mph - N/A Snow Light Snow
8:35 AM 26.6 °F 21.2 °F 24.8 °F 93% 29.63 in 2.0 mi South 4.6 mph - N/A Snow Light Snow
8:56 AM 24.6 °F 20.3 °F 22.6 °F 92% 29.66 in 2.0 mi South 3.5 mph - N/A Snow Light Snow
9:56 AM 24.8 °F 20.5 °F 22.8 °F 92% 29.66 in 0.5 mi SSW 3.5 mph - 0.00 in Fog , Snow Light Snow
10:26 AM 24.8 °F 20.5 °F 23.0 °F 93% 29.66 in 1.0 mi WSW 3.5 mph - N/A Snow Light Snow
10:41 AM 24.8 °F 20.5 °F 23.0 °F 93% 29.66 in 1.5 mi SSW 3.5 mph - N/A Snow Light Snow
10:56 AM 25.3 °F 21.1 °F 23.4 °F 92% 29.66 in 1.5 mi SW 3.5 mph - 0.00 in Snow Light Snow
11:14 AM 26.6 °F 21.2 °F 23.0 °F 86% 29.69 in 2.0 mi Variable 4.6 mph - N/A Snow Light Snow
11:56 AM 26.2 °F 22.1 °F 23.7 °F 90% 29.70 in 3.0 mi SSW 3.5 mph - 0.00 in Snow Light Snow
12:11 PM 26.6 °F 21.2 °F 23.0 °F 86% 29.70 in 0.8 mi SW 4.6 mph - N/A Snow Light Snow
12:31 PM 26.6 °F 20.0 °F 23.0 °F 86% 29.71 in 3.0 mi Variable 5.8 mph - N/A Snow Light Snow
12:56 PM 27.5 °F 22.2 °F 24.1 °F 87% 29.71 in 2.0 mi SW 4.6 mph - 0.00 in Snow Light Snow
1:56 PM 28.0 °F 22.8 °F 23.5 °F 83% 29.73 in 2.0 mi SW 4.6 mph - 0.00 in Snow Light Snow
2:56 PM 28.2 °F 24.4 °F 22.5 °F 79% 29.73 in 2.0 mi SSW 3.5 mph - 0.00 in Snow Light Snow
3:11 PM 28.4 °F - 23.0 °F 80% 29.74 in 2.5 mi Calm Calm - N/A Snow Light Snow
3:22 PM 28.4 °F 23.3 °F 23.0 °F 80% 29.76 in 10.0 mi Variable 4.6 mph - N/A Snow Light Snow
3:56 PM 28.2 °F 22.0 °F 22.3 °F 78% 29.76 in 4.0 mi SW 5.8 mph - 0.00 in Snow Light Snow
4:04 PM 28.4 °F - 23.0 °F 80% 29.76 in 2.0 mi Calm Calm - N/A Snow Light Snow
4:11 PM 28.4 °F 23.3 °F 23.0 °F 80% 29.76 in 3.0 mi SW 4.6 mph - N/A Snow Light Snow
4:15 PM 28.4 °F 23.3 °F 23.0 °F 80% 29.76 in 10.0 mi Variable 4.6 mph - N/A Snow Light Snow
4:56 PM 29.3 °F 23.2 °F 23.0 °F 77% 29.77 in 7.0 mi SW 5.8 mph - 0.00 in   Overcast
5:56 PM 28.9 °F 22.8 °F 21.7 °F 74% 29.76 in 7.0 mi WSW 5.8 mph - N/A   Mostly Cloudy
6:56 PM 28.6 °F - 20.3 °F 71% 29.77 in 10.0 mi Calm Calm - N/A   Overcast
7:41 PM 28.4 °F 24.6 °F 21.2 °F 74% 29.78 in 8.0 mi WSW 3.5 mph - N/A Snow Light Snow
7:56 PM 27.3 °F - 20.7 °F 76% 29.78 in 7.0 mi Calm Calm - 0.00 in   Overcast
8:56 PM 25.2 °F 20.9 °F 21.0 °F 84% 29.83 in 10.0 mi SSE 3.5 mph - N/A   Overcast
9:56 PM 26.2 °F 20.7 °F 20.7 °F 79% 29.83 in 10.0 mi WSW 4.6 mph - N/A Snow Light Snow
10:41 PM 24.8 °F - 21.2 °F 86% 29.81 in 4.0 mi Calm Calm - N/A Snow Light Snow
10:56 PM 25.2 °F - 22.3 °F 89% 29.85 in 4.0 mi Calm Calm - 0.00 in Snow Light Snow
11:11 PM 24.8 °F - 23.0 °F 93% 29.86 in 6.0 mi Calm Calm - N/A Snow Light Snow
11:26 PM 24.8 °F - 23.0 °F 93% 29.86 in 4.0 mi Calm Calm - N/A Snow Light Snow
11:56 PM 23.9 °F 18.0 °F 22.5 °F 94% 29.86 in 3.0 mi South 4.6 mph - 0.00 in Snow Light Snow